Webcam

Mit webcam er opstillet i Qinngorput og har retning mod den sydlige del af Nuuk. Billedet opdateres automatisk.

BGGH 180250Z AUTO 36002KT 2400NDV -FZRA OVC009/// M01/M02 Q1001